Weather History for Newport, VT

Change the Weather History Date:

Friday, April 25, 2014

  Actual Average Record
Temperature  
Mean Temperature 42 °F -  
Max Temperature 53 °F 54 °F 79 °F (1942)
Min Temperature 32 °F 33 °F 19 °F (1965)
Degree Days  
Heating Degree Days 22    
Moisture  
Dew Point 23 °F    
Average Humidity 49    
Maximum Humidity 76    
Minimum Humidity 18    
Precipitation  
Precipitation 0.00 in - - ()
Sea Level Pressure  
Sea Level Pressure 29.93 in    
Wind  
Wind Speed 5 mph (North)    
Max Wind Speed 9 mph    
Max Gust Speed -    
Visibility 10 miles    
Events      
Averages and records for this station are not official NWS values.
T = Trace of Precipitation, MM = Missing Value Source: NWS Daily Summary

Daily Weather History Graph

Daily Weather History Graph

Search for Another Location

Airport:

Trip Planner

Search our weather history database for the weather conditions in past years. The results will help you decide how hot, cold, wet, or windy it might be!

Date:

Astronomy

Apr. 25, 2014 Rise Set
Actual Time 5:47 AM EDT 7:46 PM EDT
Civil Twilight 5:16 AM EDT 8:18 PM EDT
Nautical Twilight 4:37 AM EDT 8:57 PM EDT
Astronomical Twilight 3:55 AM EDT 9:40 PM EDT
Moon 3:44 AM EDT (4/25) 3:56 PM EDT (4/25)
Length of Visible Light 15h 02m
Length of Day
13h 59m
Waning Crescent, 15% of the Moon is Illuminated
Apr 25
Waning Crescent
Apr 29
New
May 6
First Quarter
May 14
Full
May 21
Last Quarter

Hourly Weather History & Observations

Time (EDT) Temp. Windchill Dew Point Humidity Pressure Visibility Wind Dir Wind Speed Gust Speed Precip Events Conditions
12:15 AM 38.8 °F 34.6 °F 26.6 °F 61% 29.97 in 10.0 mi WNW 5.8 mph - N/A   Clear
12:35 AM 38.3 °F 34.8 °F 25.9 °F 61% 29.97 in 10.0 mi NW 4.6 mph - N/A   Clear
1:15 AM 36.7 °F 34.1 °F 25.7 °F 64% 29.96 in 10.0 mi West 3.5 mph - N/A   Clear
1:35 AM 35.8 °F - 25.5 °F 66% 29.96 in 10.0 mi Calm Calm - N/A   Clear
1:55 AM 36.0 °F 32.1 °F 25.0 °F 64% 29.96 in 10.0 mi NNW 4.6 mph - N/A   Clear
2:15 AM 35.4 °F 29.7 °F 24.8 °F 65% 29.96 in 10.0 mi NNW 6.9 mph - N/A   Clear
2:35 AM 34.2 °F 27.5 °F 24.8 °F 69% 29.96 in 10.0 mi NNW 8.1 mph - N/A   Clear
2:55 AM 34.9 °F 29.9 °F 24.4 °F 66% 29.96 in 10.0 mi NW 5.8 mph - N/A   Clear
3:15 AM 34.9 °F 28.3 °F 24.3 °F 65% 29.97 in 10.0 mi NW 8.1 mph - N/A   Clear
3:35 AM 34.2 °F 29.0 °F 24.1 °F 67% 29.97 in 10.0 mi WNW 5.8 mph - N/A   Clear
3:55 AM 33.1 °F 27.7 °F 23.9 °F 69% 29.97 in 10.0 mi WNW 5.8 mph - N/A   Clear
4:15 AM 33.4 °F 28.1 °F 23.9 °F 68% 29.98 in 10.0 mi NW 5.8 mph - N/A   Clear
4:35 AM 32.9 °F 27.5 °F 23.9 °F 69% 29.97 in 10.0 mi NW 5.8 mph - N/A   Clear
4:55 AM 33.3 °F 28.9 °F 23.7 °F 68% 29.97 in 10.0 mi NW 4.6 mph - N/A   Clear
5:15 AM 32.4 °F 27.9 °F 23.4 °F 69% 29.98 in 10.0 mi NW 4.6 mph - N/A   Clear
5:35 AM 32.0 °F 26.4 °F 23.4 °F 70% 29.99 in 10.0 mi NW 5.8 mph - N/A   Clear
5:55 AM 32.2 °F 27.7 °F 23.5 °F 70% 30.00 in 10.0 mi NW 4.6 mph - N/A   Clear
6:15 AM 32.0 °F 26.4 °F 23.9 °F 72% 30.01 in 10.0 mi NW 5.8 mph - N/A   Clear
6:35 AM 32.5 °F 28.1 °F 24.4 °F 72% 30.01 in 10.0 mi NNW 4.6 mph - N/A   Clear
6:55 AM 32.5 °F - 25.7 °F 76% 30.02 in 10.0 mi Calm Calm - N/A   Clear
7:15 AM 34.0 °F - 25.7 °F 72% 30.02 in 10.0 mi Calm Calm - N/A   Clear
7:35 AM 34.9 °F 30.8 °F 26.8 °F 72% 30.02 in 10.0 mi North 4.6 mph - N/A   Clear
7:55 AM 36.0 °F 31.1 °F 26.2 °F 68% 30.02 in 10.0 mi North 5.8 mph - N/A   Clear
8:15 AM 36.9 °F 32.2 °F 25.0 °F 62% 30.02 in 10.0 mi North 5.8 mph - N/A   Clear
8:35 AM 37.6 °F 32.3 °F 25.2 °F 61% 30.02 in 10.0 mi North 6.9 mph - N/A   Clear
8:55 AM 38.5 °F 35.0 °F 25.0 °F 58% 30.02 in 10.0 mi North 4.6 mph - N/A   Clear
9:15 AM 38.8 °F 34.6 °F 25.0 °F 58% 30.02 in 10.0 mi NE 5.8 mph - N/A   Clear
9:35 AM 40.3 °F 37.1 °F 26.4 °F 58% 30.01 in 10.0 mi NNE 4.6 mph - N/A   Clear
9:55 AM 40.5 °F 37.3 °F 25.9 °F 56% 30.01 in 10.0 mi NE 4.6 mph - N/A   Clear
10:15 AM 41.9 °F 38.2 °F 26.1 °F 53% 30.01 in 10.0 mi North 5.8 mph - N/A   Clear
10:35 AM 42.8 °F 38.0 °F 26.2 °F 52% 30.01 in 10.0 mi NNE 8.1 mph - N/A   Clear
10:55 AM 43.5 °F - 26.2 °F 51% 30.00 in 10.0 mi Calm Calm - N/A   Clear
11:15 AM 43.9 °F 42.3 °F 26.1 °F 50% 30.00 in 10.0 mi NE 3.5 mph - N/A   Clear
11:35 AM 45.5 °F 42.5 °F 27.0 °F 48% 29.99 in 10.0 mi ENE 5.8 mph - N/A   Clear
11:55 AM 45.3 °F 41.6 °F 25.5 °F 46% 29.98 in 10.0 mi ENE 6.9 mph - N/A   Clear
12:15 PM 46.0 °F 43.1 °F 25.2 °F 44% 29.97 in 10.0 mi NNE 5.8 mph - N/A   Clear
12:35 PM 46.6 °F - 24.1 °F 41% 29.96 in 10.0 mi NNE 6.9 mph - N/A   Clear
12:55 PM 47.1 °F - 22.6 °F 38% 29.96 in 10.0 mi ESE 6.9 mph - N/A   Clear
1:15 PM 48.6 °F - 22.5 °F 36% 29.95 in 10.0 mi East 9.2 mph - N/A   Clear
1:55 PM 49.3 °F - 19.2 °F 30% 29.93 in 10.0 mi East 4.6 mph - N/A   Clear
2:15 PM 49.6 °F - 17.6 °F 28% 29.92 in 10.0 mi Calm Calm - N/A   Clear
2:35 PM 49.6 °F - 19.4 °F 30% 29.92 in 10.0 mi NNE 4.6 mph - N/A   Clear
2:55 PM 50.9 °F - 16.9 °F 26% 29.90 in 10.0 mi East 5.8 mph - N/A   Clear
3:15 PM 50.9 °F - 12.4 °F 21% 29.89 in 10.0 mi North 4.6 mph - N/A   Clear
3:35 PM 51.3 °F - 11.3 °F 20% 29.89 in 10.0 mi Calm Calm - N/A   Clear
3:55 PM 52.2 °F - 11.3 °F 20% 29.88 in 10.0 mi Calm Calm - N/A   Clear
4:15 PM 52.2 °F - 9.3 °F 18% 29.87 in 10.0 mi Calm Calm - N/A   Clear
4:35 PM 53.2 °F - 13.5 °F 21% 29.86 in 10.0 mi Calm Calm - N/A   Clear
4:55 PM 53.4 °F - 16.7 °F 24% 29.85 in 10.0 mi East 4.6 mph - N/A   Clear
5:15 PM 53.1 °F - 15.6 °F 23% 29.85 in 10.0 mi ENE 3.5 mph - N/A   Clear
5:35 PM 52.9 °F - 14.5 °F 22% 29.84 in 10.0 mi NE 4.6 mph - N/A   Clear
5:55 PM 52.0 °F - 18.0 °F 26% 29.83 in 10.0 mi NE 4.6 mph - N/A   Clear
6:15 PM 51.3 °F - 22.1 °F 32% 29.83 in 10.0 mi NNE 4.6 mph - N/A   Clear
6:35 PM 50.7 °F - 23.4 °F 34% 29.83 in 10.0 mi North 4.6 mph - N/A   Clear
6:55 PM 49.6 °F - 25.2 °F 38% 29.82 in 10.0 mi North 4.6 mph - N/A   Clear
7:15 PM 49.1 °F - 25.7 °F 40% 29.81 in 10.0 mi North 5.8 mph - N/A   Clear
7:35 PM 48.4 °F - 24.4 °F 39% 29.80 in 10.0 mi North 5.8 mph - N/A   Clear
7:55 PM 48.0 °F - 23.4 °F 38% 29.81 in 10.0 mi North 5.8 mph - N/A   Clear
8:15 PM 47.3 °F - 25.2 °F 42% 29.81 in 10.0 mi North 5.8 mph - N/A   Clear
8:35 PM 46.6 °F - 26.1 °F 45% 29.81 in 10.0 mi North 5.8 mph - N/A   Scattered Clouds
8:55 PM 46.8 °F - 24.8 °F 42% 29.82 in 10.0 mi North 6.9 mph - N/A   Scattered Clouds
9:15 PM 46.6 °F - 25.7 °F 44% 29.83 in 10.0 mi North 8.1 mph - N/A   Scattered Clouds
9:35 PM 46.6 °F - 24.8 °F 43% 29.83 in 10.0 mi North 5.8 mph - N/A   Mostly Cloudy
9:55 PM 46.4 °F 42.4 °F 24.3 °F 42% 29.82 in 10.0 mi North 8.1 mph - N/A   Overcast
10:15 PM 46.0 °F 42.5 °F 24.6 °F 43% 29.82 in 10.0 mi North 6.9 mph - N/A   Overcast
10:35 PM 45.9 °F 42.3 °F 24.1 °F 42% 29.82 in 10.0 mi North 6.9 mph - N/A   Overcast
10:55 PM 45.7 °F 42.0 °F 25.0 °F 44% 29.81 in 10.0 mi North 6.9 mph - N/A   Overcast
11:15 PM 45.5 °F 41.3 °F 24.6 °F 44% 29.80 in 10.0 mi North 8.1 mph - N/A   Overcast
11:35 PM 44.8 °F 41.6 °F 25.3 °F 47% 29.80 in 10.0 mi NNW 5.8 mph - N/A   Overcast